Regional Weather Roundup
Issued by NWS

Home | Current Version | Previous Version | Text Only | Print | Product List | Glossary On
Versions: 1 2 3 4 5 6 7 8 9 10 11 12 13 14 15 16 17 18 19 20 21 22 23 24 25 26 27 28 29 30 31 32 33 34 35 36 37 38 39 40 41 42 43 44 45 46 47 48 49 50
000
ASUS46 KSTO 232315
RWRCA

NORTHERN AND CENTRAL CA REGIONAL WEATHER ROUNDUP
NATIONAL WEATHER SERVICE SACRAMENTO CA
400 PM PDT FRI JUN 23 2017

NOTE: FAIR INDICATES FEW OR NO CLOUDS BELOW 12,000 FEET WITH NO
SIGNIFICANT WEATHER AND/OR OBSTRUCTIONS TO VISIBILITY.

CAZ001-003-240000-
NORTHWEST AREA

CITY           SKY/WX    TMP DP  RH WIND       PRES   REMARKS
CRESCENT CITY  SUNNY     65  56  72 S15       29.96R
UKIAH          SUNNY    102  58  23 VRB5      29.84S HX 102
$$

CAZ006-505>513-240000-
BAY AREA

CITY           SKY/WX    TMP DP  RH WIND       PRES   REMARKS
SANTA ROSA     SUNNY     80  57  45 S14       29.87F
SAN RAFAEL     N/A       80  MM  MM MISG
NAPA           SUNNY     79  59  50 S15       29.87F
CONCORD        SUNNY     90  59  35 W13       29.84F
OAKLAND CITY   N/A      MM  MM  MM MISG
OAKLAND        MOSUNNY   70  59  68 NW20      29.90F
SAN FRAN CITY  N/A       65  MM  72 MISG
SAN FRAN ARPT  MOSUNNY   68  56  65 W23       29.89S
LIVERMORE      SUNNY     92  53  26 W15       29.84F
HAYWARD        SUNNY     74  55  51 NW20      29.89S
REDWOOD CITY   N/A       75  MM  61 MISG
MOFFETT ARPT   SUNNY     74  62  66 NW12      29.89S
SAN JOSE ARPT  SUNNY     80  62  54 NW15      29.87S
$$
CAZ034-037-514>518-240000-
CENTRAL COAST

CITY           SKY/WX    TMP DP  RH WIND       PRES   REMARKS
WATSONVILLE    SUNNY     66  59  78 W12G18    29.94R
SALINAS        SUNNY     68  57  68 W16       29.92R
MONTEREY       MOSUNNY   70  56  61 SW13      29.93R
SAN LUIS OBISP SUNNY     70  57  63 VRB3      29.93R
SANTA MARIA    SUNNY     69  57  65 NW14      29.94R
$$
CAZ015-016-240000-
NORTHERN SACRAMENTO VALLEY

CITY           SKY/WX    TMP DP  RH WIND       PRES   REMARKS
REDDING        SUNNY    110  39   9 E6        29.79F HX 104
RED BLUFF      SUNNY    108  41  10 VRB7      29.79S HX 102
OROVILLE       SUNNY    105  55  19 VRB6      29.80F HX 104
$$
CAZ016>018-240000-
SOUTHERN SACRAMENTO VALLEY

CITY           SKY/WX    TMP DP  RH WIND       PRES   REMARKS
AUBURN         SUNNY     99  54  22 S5        29.90F HX  96
LINCOLN        FAIR     102  52  18 SE5       29.78F HX 100
MARYSVILLE     SUNNY    102  57  22 S7        29.79F HX 101
SAC INTL ARPT  SUNNY    100  55  22 W8        29.78F HX  98
MATHER AIRPORT SUNNY    100  59  25 SW8       29.80S HX 100
DOWNTOWN SAC   N/A      101  MM  MM MISG
SAC EXEC ARPT  SUNNY     97  61  30 SW7       29.80F HX  97
VACAVILLE      SUNNY    100  63  29 S9        29.81F HX 102
TRAVIS AFB     SUNNY     90  60  36 SW22      29.79F HX  90
$$
CAZ019>021-240000-
SAN JOAQUIN VALLEY

CITY           SKY/WX    TMP DP  RH WIND       PRES   REMARKS
STOCKTON       SUNNY    102  55  20 NW14      29.80F HX 100
MODESTO        SUNNY    103  55  20 NW13      29.79S HX 101
MERCED         SUNNY    102  58  23 N12       29.78F HX 102
LEMOORE        SUNNY    106  56  19 N12       29.78F HX 105
FRESNO         SUNNY    105  63  25 NW8       29.78F HX 108
HANFORD        SUNNY    105  59  22 NW10      29.78F HX 105
PORTERVILLE      N/A    104  65  28 NW9       29.79F HX 108
BAKERSFIELD    SUNNY    106  60  22 NW13      29.78F HX 107
$$
CAZ011-012-071-240000-
NORTHERN MOUNTAINS

CITY           SKY/WX    TMP DP  RH WIND       PRES   REMARKS
YREKA          SUNNY     97  31   9 NE6       30.01F HX  91
MOUNT SHASTA   SUNNY     91  47  21 VRB5      30.06S
ALTURAS        SUNNY     91  34  13 NW6       30.12F
$$
CAZ011-012-071-240000-
SIERRA NEVADA MTNS

CITY           SKY/WX    TMP DP  RH WIND       PRES   REMARKS
BLUE CANYON    SUNNY     83  54  36 MISG      30.21S
TAHOE VLY ARPT SUNNY     84  37  18 NE10      30.24F
MAMMOTH LAKES  FAIR      87  32  14 NW16G22   30.31S
$$




USA.gov is the U.S. government's official web portal to all federal, state and local government web resources and services.